Temperature
19 19 19 19 20 20 20 20 20 20 20 20 19 19 19 19 19 19 19 18 18 18 18 18 18 18 18 18 18 18 18 18 17 17 17 17 17 17 17 17 17 17 17
20 20 19 19 20 20 20 20 20 20 20 20 19 19 19 19 19 19 19 18 18 18 18 18 18 18 18 18 18 18 18 17 17 17 17 17 17 17 17 17 17 17 17
20 20 19 19 20 20 20 20 20 20 20 20 19 19 19 19 19 19 19 18 18 18 18 18 18 18 18 18 18 18 18 17 17 17 17 17 17 17 17 17 17 17 17
21 20 20 20 20 20 20 20 20 20 20 19 19 19 19 19 19 19 18 18 18 18 18 18 18 18 18 17 18 18 17 17 17 17 17 17 17 17 17 17 17 17 16
20 20 20 20 20 20 20 20 20 20 20 19 19 19 19 19 18 18 18 18 18 18 18 18 18 18 17 17 17 17 17 17 17 17 17 17 17 17 17 17 17 17 16
20 20 20 20 20 20 20 20 20 20 19 19 19 19 19 19 18 18 18 18 18 18 18 18 18 17 17 17 17 17 17 17 17 17 17 17 17 17 17 17 17 17 17
20 20 20 20 20 20 20 20 20 19 19 19 19 19 19 18 18 18 18 18 18 18 18 18 17 17 17 17 17 17 17 17 17 17 17 17 17 17 17 17 17 17 17
20 20 20 20 20 20 20 20 19 19 19 19 19 19 19 18 18 18 18 18 18 18 18 17 17 17 17 17 17 17 17 17 17 17 17 17 17 17 17 17 17 17 17
20 20 20 19 19 19 19 19 19 19 19 19 19 19 18 18 18 18 18 18 18 18 17 17 17 17 17 17 17 17 17 17 18 17 17 17 17 17 17 17 17 17 17
20 20 20 19 19 19 19 19 19 19 19 19 19 18 18 18 18 18 18 18 18 17 17 17 17 17 17 17 17 17 17 17 17 17 17 17 17 17 17 17 17 17 17
19 19 19 19 19 19 19 19 19 19 19 18 18 18 18 18 18 18 18 17 17 17 17 17 17 17 17 17 17 17 17 17 17 17 17 17 17 17 17 17 17 17 17
19 19 19 19 19 19 19 19 18 18 18 18 18 18 18 18 18 17 17 17 17 17 17 17 17 17 17 17 17 17 17 17 17 17 17 17 17 17 17 17 17 17 17
19 19 19 19 19 19 19 19 18 18 18 18 18 18 17 17 17 17 17 17 17 17 17 17 17 17 17 17 17 17 17 17 17 17 17 17 17 17 17 17 17 17 17
19 19 19 19 19 19 19 19 19 18 18 18 18 17 17 17 17 17 17 17 17 17 17 17 17 17 17 17 17 17 17 17 17 17 17 17 17 17 17 16 16 16 16
19 19 19 19 19 18 19 19 18 18 18 18 18 17 17 17 17 17 17 17 17 17 16 16 16 16 16 16 17 17 17 17 17 17 17 17 17 17 16 16 16 16 16
19 19 19 18 18 18 18 18 18 18 18 18 18 17 17 17 17 17 17 16 16 16 16 16 16 16 16 16 16 16 16 16 17 17 16 16 16 16 16 16 16 16 16
19 18 18 18 18 18 18 18 18 18 18 18 18 17 17 17 17 16 16 16 16 16 16 16 16 16 16 16 16 16 16 16 16 16 16 16 16 16 16 16 16 16 16
18 18 18 18 18 18 18 18 18 18 18 17 17 17 17 17 16 16 16 16 16 16 16 16 16 16 16 16 16 16 16 16 16 16 16 16 16 16 16 16 16 16 16
18 18 18 18 18 18 18 18 18 18 18 17 17 17 17 16 16 16 16 16 16 15 15 15 15 15 16 16 16 16 16 16 16 16 16 16 15 15 16 16 16 15 15
18 18 18 18 18 18 17 17 17 17 17 17 17 17 16 16 16 16 16 16 15 15 15 15 15 15 15 15 15 16 16 16 16 16 16 15 15 15 15 15 15 15 15
18 17 17 17 17 17 17 17 17 17 17 17 17 17 16 16 16 16 16 15 15 15 15 15 15 15 15 15 15 15 15 15 15 15 15 15 15 15 15 15 15 15 15
18 18 17 17 17 17 17 18 18 18 17 17 17 16 16 16 16 16 15 15 15 15 15 15 15 15 15 15 15 15 15 15 15 15 15 15 15 15 15 15 15 15 15
18 17 17 17 17 17 17 17 17 17 17 17 17 16 16 16 16 15 15 15 15 15 15 15 15 15 15 15 15 15 15 15 15 15 15 15 15 15 15 15 15 15 15
17 17 17 17 17 17 17 17 17 17 17 17 17 16 16 16 15 15 15 15 15 15 15 15 15 15 15 15 15 15 15 15 15 15 15 15 15 15 15 15 15 15 15
17 17 17 17 17 17 17 17 17 17 17 17 17 16 16 16 15 15 15 15 15 15 14 14 14 14 15 15 15 15 15 15 15 15 15 15 15 15 15 15 15 14 14
17 17 17 17 17 17 17 17 17 17 17 17 17 16 16 16 16 15 15 15 15 14 14 14 14 14 14 14 15 15 15 15 15 15 15 15 15 15 15 15 15 14 14
Wind_Speed
9 12 20 19 19 19 20 20 19 19 19 19 19 19 18 17 16 15 14 14 13 13 12 12 13 13 13 13 13 14 14 14 14 15 15 16 16 17 17 18 17 17 19
15 18 21 20 20 20 20 19 19 19 19 18 18 18 17 16 16 15 14 13 13 13 13 13 13 13 13 13 13 13 13 13 14 14 15 15 16 16 17 17 16 15 18
17 18 21 21 20 20 20 19 19 18 18 17 17 17 16 15 15 14 14 13 13 13 13 13 13 13 13 13 13 12 12 13 13 14 13 12 14 15 16 16 16 17 17
17 18 19 22 21 20 20 19 18 18 17 17 16 15 15 15 14 13 13 13 13 13 12 12 12 12 12 12 12 11 12 12 13 13 11 11 13 15 15 15 16 16 16
15 17 20 23 21 20 19 19 18 17 17 16 15 15 14 14 13 13 12 12 12 12 12 12 12 12 11 11 10 10 11 11 12 11 10 11 12 15 15 15 15 15 15
14 17 21 23 21 20 19 18 18 17 17 16 15 14 13 13 12 12 12 11 11 11 11 11 11 10 10 9 9 9 9 11 10 9 10 11 11 14 15 15 14 14 14
14 14 20 23 22 20 19 19 18 17 16 15 14 13 13 12 12 12 11 11 10 10 10 10 9 9 8 8 8 8 8 10 10 10 10 10 11 14 14 14 14 14 14
15 13 18 22 21 20 19 18 18 17 16 15 14 13 12 11 11 10 10 10 9 9 9 8 8 7 7 6 6 6 7 10 10 9 9 10 12 13 13 14 13 13 13
12 11 13 18 19 20 19 18 17 16 16 15 14 13 12 11 10 10 9 8 8 8 7 7 6 6 5 5 4 5 7 10 10 8 9 9 12 13 13 13 13 12 12
10 10 10 13 15 15 16 18 17 16 15 14 13 12 11 10 10 9 8 7 7 6 6 5 5 5 5 4 4 5 7 9 9 8 7 8 12 13 13 12 12 12 12
12 9 9 9 11 12 13 16 16 16 15 14 12 12 10 8 7 7 6 6 6 5 4 4 4 4 4 4 4 5 7 7 7 7 7 9 11 11 12 12 12 12 12
16 12 9 9 9 11 12 12 11 12 12 10 9 10 8 7 6 5 5 5 5 4 4 3 3 4 4 3 3 4 4 6 6 6 6 9 10 10 11 11 11 11 11
15 14 11 10 9 9 7 9 8 8 9 8 8 9 8 7 5 4 4 3 3 3 4 4 4 4 4 3 2 3 4 4 5 4 6 9 9 9 9 10 10 10 10
14 14 11 10 9 8 7 7 7 7 6 6 7 8 8 5 4 4 3 2 3 3 3 3 3 3 3 3 2 3 4 4 4 3 4 7 8 8 8 9 10 10 10
13 13 13 11 10 8 6 6 7 6 7 7 7 8 9 6 4 4 3 3 3 3 2 2 2 2 3 3 2 3 3 3 3 3 2 4 7 7 7 8 9 9 10
13 12 12 12 11 8 7 5 6 7 7 7 7 8 9 8 6 5 3 3 2 2 2 2 2 3 2 2 2 2 2 2 2 2 1 2 4 5 6 6 7 9 9
12 11 11 11 10 10 8 7 6 7 8 6 7 9 10 9 8 6 4 3 2 3 4 4 4 4 3 3 3 2 2 2 2 1 1 0 0 2 4 5 6 7 8
11 11 12 13 11 10 8 6 6 7 7 7 8 9 9 10 9 7 4 3 4 4 4 3 2 3 3 3 2 2 2 2 2 1 0 0 0 1 2 4 6 6 7
11 11 12 11 11 10 8 6 6 6 6 7 8 8 9 10 10 8 5 4 5 4 3 2 3 2 2 3 3 3 3 2 2 2 1 0 0 1 1 2 3 5 6
10 10 10 11 10 9 7 5 4 5 4 6 7 8 10 10 10 9 6 5 6 4 3 3 3 3 3 2 4 4 4 3 3 3 2 2 1 0 1 1 1 3 4
10 10 10 10 9 9 7 6 5 5 4 4 5 8 10 10 11 9 6 5 4 3 3 3 3 4 3 2 3 3 4 4 4 4 3 3 3 2 2 1 1 1 1
10 11 11 11 11 10 8 6 4 4 4 3 4 6 9 10 10 8 7 5 4 4 4 3 3 3 2 2 2 3 3 3 4 4 3 3 3 3 3 2 2 1 1
10 11 11 11 10 10 9 6 6 5 4 3 3 3 5 9 9 9 8 6 5 4 4 3 3 4 3 2 2 3 3 2 1 3 3 3 3 3 3 2 2 2 1
10 9 9 9 9 9 10 10 10 7 5 5 4 4 4 7 8 9 9 7 5 4 4 3 2 3 4 2 2 2 2 3 3 1 2 2 3 3 3 2 3 2 1
10 10 9 9 9 9 10 10 10 7 5 4 5 6 4 4 5 8 8 7 5 4 4 4 3 3 3 3 2 2 2 2 2 2 0 2 2 2 2 2 2 2 1
8 9 9 10 10 10 10 10 9 10 9 8 7 6 5 3 3 5 7 7 6 5 4 4 4 4 3 3 3 2 3 2 2 2 2 1 1 2 2 2 1 1 1
Wind_Direction
158 160 153 145 137 131 127 124 122 121 120 120 121 123 124 125 124 123 122 119 116 113 110 107 105 104 104 105 105 106 107 110 111 113 113 114 113 112 112 111 109 110 111
150 157 154 148 141 135 131 128 126 125 124 123 124 125 125 125 125 123 121 119 117 114 111 108 106 107 106 107 108 108 110 112 114 114 115 117 118 116 115 114 113 116 115
146 154 153 150 144 140 136 133 130 129 128 127 126 127 126 125 124 123 121 118 115 112 110 109 108 107 107 108 109 110 112 115 116 114 113 116 120 120 120 119 119 118 118
146 151 153 152 148 144 141 137 135 133 132 131 130 130 129 127 126 125 122 118 116 114 113 111 109 108 108 109 111 114 116 119 120 116 112 119 125 127 125 123 121 121 121
146 150 156 154 151 148 145 141 139 138 136 135 134 134 132 130 128 125 123 120 117 116 115 113 111 109 109 110 112 117 125 126 125 119 115 117 125 132 129 127 125 124 123
148 152 159 156 153 151 148 146 144 143 141 139 138 136 134 133 129 126 124 121 117 117 115 113 112 110 109 109 111 117 130 136 126 125 122 123 130 136 134 132 129 128 127
149 153 160 157 156 154 153 151 149 147 144 143 142 140 137 134 133 129 126 123 119 117 115 114 112 107 105 105 107 114 128 137 131 131 132 133 138 141 137 134 132 131 130
152 154 159 159 158 157 156 154 153 151 148 148 147 145 142 139 136 133 128 125 123 119 116 114 110 103 98 99 102 110 127 137 136 137 138 141 146 144 141 138 138 137 135
151 152 155 159 160 160 159 158 157 154 153 152 151 149 147 144 141 139 135 131 127 124 120 116 108 98 88 86 99 119 129 133 137 139 145 148 152 149 146 144 144 141 141
152 154 150 153 156 158 161 161 161 158 158 156 156 154 153 151 149 145 141 141 136 131 126 116 103 91 79 77 94 128 136 132 140 142 143 154 157 155 152 149 149 147 146
160 158 152 149 148 151 157 165 164 162 163 162 161 160 153 145 144 144 147 149 146 140 130 116 102 91 79 74 92 119 130 136 144 147 153 162 163 162 159 156 155 154 153
169 167 159 153 150 151 161 160 157 158 160 157 156 152 141 140 144 145 154 154 147 136 122 105 91 77 77 73 94 111 126 146 148 157 168 171 170 169 166 163 161 160 161
169 168 165 158 153 155 152 149 147 147 149 151 152 148 142 137 130 122 116 109 97 97 76 67 63 59 72 84 104 126 137 146 156 168 181 183 178 176 172 171 169 168 168
168 171 165 161 155 155 150 150 148 147 151 154 157 154 146 135 126 120 112 103 89 87 84 66 53 48 62 75 118 139 144 144 158 169 195 192 187 186 183 182 181 179 177
174 175 169 165 162 158 150 155 157 157 160 161 160 161 157 147 141 132 119 116 111 106 99 74 63 59 55 55 93 138 147 148 151 155 185 195 192 193 195 194 192 191 189
181 179 172 170 167 160 158 156 157 161 160 159 162 165 162 155 148 139 126 121 120 119 110 99 87 82 65 63 70 104 139 130 137 150 170 198 201 202 204 204 203 202 201
182 176 175 175 167 163 163 164 162 162 158 160 164 165 163 159 153 144 133 129 129 123 107 91 77 73 69 64 58 55 73 90 109 128 136 164 291 224 211 208 212 216 212
178 179 180 180 172 167 167 165 160 160 157 160 162 161 161 160 152 141 136 136 136 126 108 96 74 69 61 70 67 40 40 46 55 71 88 48 288 282 227 212 215 223 219
180 180 181 176 172 170 166 158 155 152 149 154 156 154 156 156 152 142 137 132 130 114 99 101 70 80 77 70 79 56 38 41 37 33 19 350 252 242 234 237 229 228 225
175 176 178 173 170 164 154 137 130 131 138 144 152 153 152 150 149 139 131 128 127 110 93 85 86 68 70 69 76 59 38 34 44 39 15 18 30 35 205 231 240 244 240
171 177 179 173 168 159 155 154 154 156 149 145 151 151 150 149 148 140 133 126 127 120 121 118 102 82 60 51 77 47 27 36 47 36 28 40 41 39 67 97 177 199 245
176 177 179 175 170 166 165 158 148 135 133 134 133 139 150 150 150 149 143 140 136 120 111 111 113 106 68 50 108 94 44 13 12 23 26 37 34 41 49 55 86 122 142
182 181 181 173 168 162 151 133 119 99 95 108 123 140 152 155 155 152 151 144 142 136 139 136 132 128 120 59 64 130 135 189 328 355 18 26 21 32 28 35 59 76 123
185 176 170 167 167 159 152 154 155 157 160 168 159 156 146 155 158 158 155 150 148 143 144 150 139 135 134 129 75 59 101 142 138 43 348 1 11 26 16 23 28 33 63
178 174 171 166 168 163 163 164 162 157 148 137 135 143 146 150 160 162 160 154 152 151 152 147 138 136 136 144 145 127 98 74 88 135 181 334 354 359 359 358 351 357 19
167 170 168 170 173 167 166 167 168 162 152 148 152 159 159 154 159 168 165 162 162 160 162 161 154 147 138 134 140 146 151 149 157 146 160 223 303 320 334 336 326 320 329
Height
1511 1515 1518 1521 1524 1526 1527 1529 1530 1532 1533 1535 1536 1537 1538 1540 1541 1542 1543 1543 1544 1545 1546 1547 1548 1548 1549 1550 1550 1551 1552 1552 1553 1554 1555 1555 1556 1557 1559 1560 1561 1562 1563
1509 1514 1518 1521 1524 1527 1528 1530 1531 1533 1534 1536 1537 1539 1540 1541 1542 1543 1544 1545 1546 1547 1548 1548 1549 1550 1551 1551 1552 1553 1553 1554 1555 1556 1557 1558 1559 1560 1561 1562 1563 1564 1565
1509 1514 1518 1522 1525 1527 1529 1531 1533 1534 1536 1537 1539 1540 1542 1543 1544 1545 1546 1547 1548 1549 1549 1550 1551 1552 1552 1553 1554 1554 1555 1556 1557 1558 1559 1560 1561 1562 1563 1564 1566 1567 1568
1509 1514 1518 1522 1525 1528 1530 1532 1534 1535 1537 1539 1540 1542 1543 1545 1546 1547 1548 1549 1550 1550 1551 1552 1553 1553 1554 1555 1556 1557 1557 1558 1559 1560 1561 1562 1563 1564 1565 1566 1568 1569 1570
1510 1514 1518 1522 1525 1528 1530 1532 1534 1536 1538 1540 1542 1543 1545 1546 1548 1549 1550 1551 1551 1552 1553 1554 1555 1555 1556 1557 1558 1559 1560 1560 1561 1562 1562 1563 1564 1566 1567 1568 1570 1571 1572
1511 1515 1519 1523 1526 1529 1531 1534 1535 1537 1539 1541 1543 1545 1546 1548 1549 1550 1552 1553 1553 1554 1555 1556 1556 1557 1558 1559 1560 1561 1562 1562 1563 1564 1564 1565 1566 1567 1569 1570 1572 1573 1574
1511 1516 1519 1523 1526 1529 1532 1534 1537 1539 1541 1542 1544 1546 1548 1549 1551 1552 1553 1554 1555 1556 1557 1557 1558 1559 1560 1561 1562 1563 1563 1564 1565 1565 1566 1567 1568 1569 1571 1572 1574 1575 1576
1511 1516 1520 1524 1527 1530 1533 1535 1537 1539 1542 1544 1546 1547 1549 1551 1552 1553 1555 1556 1556 1557 1558 1559 1560 1561 1562 1562 1563 1564 1565 1566 1566 1567 1568 1569 1570 1571 1572 1574 1575 1576 1577
1513 1516 1520 1524 1527 1531 1534 1536 1538 1540 1543 1545 1547 1548 1550 1552 1553 1555 1556 1557 1558 1559 1560 1560 1561 1562 1563 1564 1565 1566 1566 1567 1567 1568 1569 1570 1571 1572 1574 1575 1576 1578 1579
1514 1516 1520 1524 1527 1531 1534 1537 1539 1541 1543 1546 1548 1549 1551 1553 1554 1556 1557 1558 1559 1560 1561 1562 1563 1563 1564 1565 1566 1567 1567 1568 1569 1569 1570 1571 1572 1573 1575 1576 1577 1579 1580
1513 1516 1520 1524 1527 1531 1534 1537 1540 1542 1544 1546 1548 1550 1552 1554 1555 1557 1558 1559 1560 1561 1562 1563 1563 1564 1565 1566 1567 1567 1568 1569 1570 1570 1571 1572 1573 1574 1576 1577 1578 1580 1581
1510 1515 1520 1523 1527 1531 1534 1537 1540 1542 1545 1547 1549 1551 1553 1554 1556 1557 1559 1560 1561 1562 1563 1563 1564 1565 1565 1566 1567 1568 1569 1570 1571 1572 1572 1573 1574 1575 1576 1578 1579 1581 1582
1508 1513 1518 1522 1527 1530 1534 1537 1540 1542 1545 1547 1549 1551 1553 1555 1557 1558 1559 1560 1561 1562 1563 1564 1564 1565 1566 1567 1568 1569 1569 1570 1571 1572 1573 1574 1575 1576 1577 1578 1580 1581 1582
1508 1512 1517 1522 1526 1530 1533 1536 1539 1542 1545 1547 1550 1552 1554 1555 1557 1558 1560 1561 1562 1562 1563 1564 1564 1565 1566 1567 1568 1569 1570 1571 1572 1572 1573 1574 1575 1576 1577 1579 1580 1581 1583
1508 1512 1516 1520 1525 1529 1533 1536 1539 1542 1545 1547 1550 1552 1554 1556 1557 1558 1560 1561 1562 1563 1563 1564 1565 1566 1566 1567 1568 1569 1570 1571 1572 1573 1574 1575 1575 1576 1578 1579 1580 1581 1583
1506 1510 1514 1519 1523 1528 1532 1536 1539 1542 1545 1547 1550 1552 1554 1556 1557 1558 1560 1561 1562 1562 1563 1564 1565 1566 1566 1567 1568 1569 1570 1571 1571 1572 1574 1575 1575 1576 1577 1579 1580 1581 1583
1505 1510 1513 1518 1522 1527 1532 1535 1539 1542 1545 1547 1550 1552 1554 1555 1557 1558 1560 1561 1561 1562 1563 1564 1565 1565 1566 1567 1568 1569 1570 1570 1571 1572 1573 1574 1575 1576 1577 1578 1579 1581 1582
1504 1508 1512 1517 1521 1526 1530 1534 1538 1541 1544 1547 1550 1552 1554 1555 1557 1558 1559 1560 1561 1562 1563 1564 1565 1565 1566 1567 1568 1569 1570 1570 1571 1572 1573 1574 1575 1576 1577 1578 1579 1580 1581
1501 1506 1510 1515 1519 1524 1529 1533 1537 1541 1544 1547 1549 1551 1553 1555 1556 1558 1559 1560 1561 1562 1563 1563 1564 1565 1566 1567 1568 1569 1570 1570 1571 1572 1573 1574 1574 1575 1576 1577 1578 1579 1580
1500 1504 1509 1513 1518 1522 1527 1532 1536 1539 1543 1546 1548 1551 1553 1554 1556 1557 1558 1559 1560 1561 1562 1563 1564 1565 1566 1567 1568 1569 1570 1570 1571 1572 1573 1574 1574 1575 1576 1576 1577 1578 1579
1499 1502 1507 1511 1516 1520 1525 1529 1534 1537 1541 1544 1547 1550 1552 1553 1555 1556 1557 1559 1560 1561 1562 1563 1564 1565 1566 1567 1568 1569 1570 1570 1571 1572 1573 1573 1574 1575 1575 1576 1577 1577 1578
1496 1500 1504 1509 1514 1519 1524 1528 1533 1537 1540 1544 1546 1549 1551 1553 1554 1555 1557 1558 1559 1560 1561 1562 1563 1564 1565 1566 1568 1569 1570 1572 1571 1572 1573 1573 1574 1574 1575 1575 1576 1576 1577
1494 1497 1501 1506 1512 1517 1522 1527 1532 1536 1539 1542 1545 1548 1550 1552 1554 1555 1556 1557 1558 1560 1561 1562 1563 1564 1565 1566 1567 1569 1570 1570 1571 1572 1573 1573 1574 1574 1575 1575 1575 1576 1576
1491 1496 1500 1505 1511 1516 1521 1525 1530 1534 1537 1540 1544 1547 1549 1551 1553 1554 1556 1557 1558 1559 1560 1561 1563 1564 1565 1566 1567 1568 1569 1569 1571 1572 1573 1573 1573 1574 1574 1574 1575 1575 1575
1490 1495 1499 1504 1509 1514 1519 1524 1529 1533 1537 1540 1543 1546 1548 1550 1552 1553 1555 1556 1557 1558 1560 1561 1562 1563 1564 1565 1566 1567 1568 1569 1570 1571 1571 1572 1573 1573 1573 1574 1574 1574 1575
1489 1494 1498 1503 1507 1512 1517 1522 1527 1531 1535 1538 1542 1544 1547 1549 1550 1552 1554 1555 1556 1557 1559 1560 1561 1562 1563 1564 1565 1566 1567 1568 1569 1569 1570 1571 1572 1572 1573 1573 1573 1574 1574